Location: Slanting_Bridge
(35.6330°N, 80.9830°W)
Time: 17:11:00
(UTC-04:00)

Hamsat - Visible Passes

Search period start: 04 May 2016 00:00
Search period end: 14 May 2016 00:00
Orbit: 586 x 621 km, 97.6° (Epoch: 03 May)

Date Brightness Start Highest point End Pass type
(mag) Time Alt. Az. Time Alt. Az. Time Alt. Az.
04 May ? 05:18:40 10° NE 05:22:04 23° E 05:25:27 10° SSE visible
05 May ? 05:30:27 10° NNE 05:34:16 32° E 05:38:05 10° SSE visible
06 May ? 05:42:22 10° NNE 05:46:27 45° E 05:50:32 10° S visible
07 May ? 05:54:23 10° NNE 05:58:37 64° E 06:02:51 10° S visible
10 May ? 04:57:05 10° ENE 04:59:00 13° E 05:00:55 10° ESE visible
11 May ? 05:08:18 10° NE 05:11:14 18° E 05:14:10 10° SE visible
12 May ? 05:19:55 10° NE 05:23:26 25° E 05:26:58 10° SSE visible
13 May ? 05:31:43 10° NNE 05:35:37 34° E 05:39:33 10° SSE visible
